N9BLE Weather Reports


Display with metric or nautical units.
time (UTC)temp
F
wind
direction
speed
MPH
gust
MPH
rain 1hr
in
rain 24hr
in
rain mn
in
humidity
%
barometer
mb
20260504100343 45 347 0.0 0.0 0.00 0.00 0.00 82 1007.8
20260504081737 48 329 0.0 2.0 0.00 0.00 0.00 77 1007.9
20260504081233 48 349 0.0 1.0 0.00 0.00 0.00 78 1007.8
20260504080730 48 320 1.0 1.0 0.00 0.00 0.00 79 1008.1
20260504080226 48 307 1.0 2.0 0.00 0.00 0.00 79 1007.8
20260504070153 49 357 0.0 0.0 0.00 0.00 0.00 79 1009.0
20260504060114 49 346 0.0 0.0 0.00 0.00 0.00 82 1009.6
20260504050542 50 340 1.0 2.0 0.00 0.00 0.00 81 1010.2
20260504045536 51 317 1.0 2.0 0.00 0.12 0.12 80 1010.0
20260504045032 51 292 1.0 2.0 0.00 0.12 0.12 79 1010.1
20260504044529 51 304 1.0 2.0 0.00 0.12 0.12 79 1010.0
20260504044026 51 326 1.0 3.0 0.00 0.12 0.12 79 1010.2
20260504043523 51 324 1.0 2.0 0.00 0.12 0.12 78 1009.9
20260504043020 52 278 1.0 2.0 0.00 0.12 0.12 78 1009.9
20260504042517 52 331 1.0 3.0 0.00 0.12 0.12 77 1009.9
20260504042014 52 284 2.0 3.0 0.00 0.12 0.12 77 1009.8
20260504041510 52 309 1.0 2.0 0.00 0.12 0.12 77 1009.9
20260504041006 53 342 1.0 2.0 0.00 0.12 0.12 76 1009.9
20260504040504 53 286 1.0 2.0 0.00 0.12 0.12 76 1009.8
20260504040000 53 319 1.0 3.0 0.00 0.12 0.12 75 1009.9
20260504035457 53 310 2.0 3.0 0.00 0.12 0.12 75 1009.8
20260504034953 53 252 2.0 2.0 0.00 0.12 0.12 74 1009.6
20260504034451 54 326 1.0 3.0 0.00 0.12 0.12 74 1009.8
20260504033948 54 248 2.0 2.0 0.00 0.12 0.12 74 1009.8
20260504033446 54 279 2.0 2.0 0.00 0.12 0.12 73 1009.9
20260504032943 54 310 1.0 3.0 0.00 0.12 0.12 73 1009.8
20260504032440 55 239 2.0 2.0 0.00 0.12 0.12 72 1010.1
20260504031937 55 352 1.0 3.0 0.00 0.12 0.12 72 1009.8
20260504031433 55 316 1.0 3.0 0.00 0.12 0.12 71 1009.9
20260504030930 55 273 2.0 3.0 0.00 0.12 0.12 71 1009.9
20260504030427 55 262 2.0 3.0 0.00 0.12 0.12 71 1010.0
20260504025923 56 251 1.0 2.0 0.00 0.12 0.12 70 1010.1
20260504025420 56 348 1.0 3.0 0.00 0.12 0.12 69 1009.9
20260504024917 56 271 3.0 3.0 0.00 0.12 0.12 70 1010.1
20260504024414 56 263 1.0 2.0 0.00 0.12 0.12 69 1010.1
20260504023911 56 270 1.0 5.0 0.00 0.12 0.12 69 1009.9
20260504023408 56 297 2.0 3.0 0.00 0.12 0.12 69 1010.0
20260504022903 56 324 1.0 2.0 0.00 0.12 0.12 69 1009.8
20260504022400 57 302 2.0 2.0 0.00 0.12 0.12 68 1009.7
20260504021856 57 285 1.0 2.0 0.00 0.12 0.12 69 1010.0
20260504021354 57 295 1.0 3.0 0.00 0.12 0.12 68 1010.0
20260504020851 57 258 1.0 2.0 0.00 0.12 0.12 67 1009.9
20260504020347 57 320 2.0 3.0 0.00 0.12 0.12 67 1009.9
20260504015843 58 261 2.0 2.0 0.00 0.12 0.12 66 1009.7
20260504015340 58 342 2.0 2.0 0.00 0.12 0.12 67 1009.7
20260504014836 58 293 1.0 2.0 0.00 0.12 0.12 66 1009.9
20260504014332 58 314 1.0 2.0 0.00 0.12 0.12 67 1009.4
20260504013830 58 294 1.0 2.0 0.00 0.12 0.12 66 1009.5
20260504013328 59 275 2.0 2.0 0.00 0.12 0.12 65 1009.7
20260504012824 59 289 2.0 2.0 0.00 0.12 0.12 64 1009.5
20260504012322 59 277 2.0 3.0 0.00 0.12 0.12 63 1009.6
20260504011819 59 243 2.0 3.0 0.00 0.12 0.12 63 1009.6
20260504011316 60 321 2.0 2.0 0.00 0.12 0.12 63 1009.5
20260504010811 60 15 2.0 3.0 0.00 0.12 0.12 63 1009.4
20260504010307 60 288 1.0 3.0 0.00 0.12 0.12 62 1009.4
20260504005804 61 11 1.0 3.0 0.00 0.12 0.12 62 1009.4
20260504005301 61 312 1.0 2.0 0.00 0.12 0.12 61 1009.6
20260504004759 62 295 2.0 3.0 0.00 0.12 0.12 60 1009.5
20260504004256 62 325 1.0 3.0 0.00 0.12 0.12 59 1009.5
20260504003752 63 247 2.0 3.0 0.00 0.12 0.12 57 1009.5
20260504003249 64 319 1.0 2.0 0.00 0.12 0.12 55 1009.5
20260504002746 64 324 1.0 2.0 0.00 0.12 0.12 53 1009.6
20260504002242 65 279 1.0 2.0 0.00 0.12 0.12 51 1009.6
20260504001741 65 263 1.0 3.0 0.00 0.12 0.12 49 1009.6
20260504001237 66 285 1.0 3.0 0.00 0.12 0.12 49 1009.8
20260504000734 66 240 1.0 3.0 0.00 0.12 0.12 48 1009.5
20260504000231 66 237 3.0 5.0 0.00 0.12 0.12 48 1009.4
20260503235729 67 248 4.0 5.0 0.00 0.12 0.12 46 1009.5
20260503235226 67 222 3.0 6.0 0.00 0.12 0.12 45 1009.7
20260503234724 67 249 3.0 5.0 0.00 0.12 0.12 44 1009.6
20260503234222 67 12 1.0 7.0 0.00 0.12 0.12 45 1009.8
20260503233718 67 256 2.0 3.0 0.00 0.12 0.12 47 1009.5
20260503233214 68 253 3.0 6.0 0.00 0.12 0.12 45 1009.6
20260503232711 67 232 5.0 8.0 0.00 0.12 0.12 46 1009.7
20260503232208 68 258 3.0 7.0 0.00 0.12 0.12 45 1009.8
20260503231707 68 235 4.0 6.0 0.00 0.12 0.12 47 1009.6
20260503231203 68 30 5.0 9.0 0.00 0.12 0.12 45 1009.5
20260503230659 68 245 3.0 8.0 0.00 0.12 0.12 45 1009.8
20260503230156 68 35 3.0 10.0 0.00 0.12 0.12 45 1009.8
20260503225654 68 70 3.0 11.0 0.00 0.12 0.12 43 1009.7
20260503225154 68 231 6.0 9.0 0.00 0.12 0.12 45 1009.9
20260503224651 69 37 4.0 8.0 0.00 0.12 0.12 44 1009.7
20260503224149 69 288 6.0 7.0 0.00 0.12 0.12 45 1010.0
20260503223647 69 233 6.0 8.0 0.00 0.12 0.12 44 1010.0
20260503223143 69 255 5.0 8.0 0.00 0.12 0.12 43 1010.0
20260503222640 69 132 3.0 8.0 0.00 0.12 0.12 44 1010.1
20260503222138 69 227 2.0 10.0 0.00 0.12 0.12 42 1009.9
20260503221636 69 254 4.0 8.0 0.00 0.12 0.12 44 1010.1
20260503221133 69 302 7.0 10.0 0.00 0.12 0.12 43 1010.1
20260503220630 69 245 6.0 9.0 0.00 0.12 0.12 42 1009.8
20260503220127 69 236 5.0 9.0 0.00 0.12 0.12 44 1010.2
20260503215624 70 234 5.0 8.0 0.00 0.12 0.12 43 1009.9
20260503215120 69 243 4.0 9.0 0.00 0.12 0.12 45 1010.1
20260503214619 69 254 5.0 11.0 0.00 0.12 0.12 42 1010.0
20260503214115 70 256 7.0 14.0 0.00 0.12 0.12 43 1010.1
20260503213614 70 255 4.0 9.0 0.00 0.12 0.12 45 1010.2
20260503213110 70 164 6.0 9.0 0.00 0.12 0.12 46 1010.2
20260503212608 70 233 4.0 9.0 0.00 0.12 0.12 45 1010.1
20260503212105 70 217 4.0 9.0 0.00 0.12 0.12 42 1010.1
20260503211602 69 260 6.0 9.0 0.00 0.12 0.12 44 1010.2
20260503211057 67 351 3.0 5.0 0.00 0.12 0.12 48 1010.4
20260503210554 69 137 3.0 7.0 0.00 0.12 0.12 46 1010.4
20260503210050 69 213 4.0 7.0 0.00 0.12 0.12 45 1010.4
20260503205547 68 288 3.0 7.0 0.00 0.12 0.12 47 1010.5
20260503205043 69 217 3.0 7.0 0.00 0.12 0.12 45 1010.7
20260503204540 69 335 3.0 8.0 0.00 0.12 0.12 51 1010.9
20260503204037 68 193 5.0 11.0 0.00 0.12 0.12 45 1011.0
20260503203535 68 319 3.0 7.0 0.00 0.12 0.12 45 1011.1
20260503203032 68 213 3.0 13.0 0.00 0.12 0.12 44 1011.4
20260503202530 65 216 4.0 7.0 0.00 0.12 0.12 50 1011.2
20260503202027 65 174 3.0 7.0 0.00 0.12 0.12 48 1011.7
20260503201525 66 274 5.0 9.0 0.00 0.12 0.12 47 1011.7
20260503201022 64 295 5.0 7.0 0.00 0.12 0.12 49 1011.7
20260503200518 64 229 3.0 8.0 0.00 0.12 0.12 51 1012.0
20260503200015 64 104 5.0 10.0 0.00 0.12 0.12 46 1012.0
20260503195513 64 201 5.0 9.0 0.00 0.12 0.12 47 1012.0
20260503195009 64 1 2.0 9.0 0.00 0.12 0.12 47 1012.1
20260503194507 65 240 6.0 13.0 0.00 0.12 0.12 46 1012.3
20260503194006 65 323 8.0 13.0 0.00 0.12 0.12 48 1012.1
20260503193503 66 200 5.0 7.0 0.00 0.12 0.12 46 1012.4
20260503192958 65 27 5.0 9.0 0.00 0.12 0.12 49 1012.3
20260503192454 64 248 5.0 9.0 0.00 0.12 0.12 49 1012.3
20260503191950 65 258 6.0 14.0 0.00 0.12 0.12 48 1012.5
20260503191448 67 244 7.0 13.0 0.00 0.12 0.12 48 1012.3
20260503190944 65 159 4.0 8.0 0.00 0.12 0.12 52 1012.7
20260503190442 64 5 5.0 8.0 0.00 0.12 0.12 58 1012.8
20260503185938 63 181 2.0 9.0 0.00 0.12 0.12 56 1012.8
20260503185435 63 45 3.0 7.0 0.00 0.12 0.12 59 1012.6
20260503184934 63 247 3.0 9.0 0.00 0.12 0.12 55 1012.8
20260503184431 61 219 6.0 8.0 0.00 0.12 0.12 63 1012.6
20260503183927 61 173 3.0 6.0 0.00 0.12 0.12 62 1012.6
20260503183424 61 227 5.0 8.0 0.00 0.12 0.12 61 1012.9
20260503182921 61 116 3.0 9.0 0.00 0.12 0.12 61 1013.2
20260503182420 60 209 5.0 7.0 0.00 0.12 0.12 62 1013.0
20260503181917 59 122 2.0 5.0 0.00 0.12 0.12 68 1013.2
20260503181414 58 114 3.0 7.0 0.00 0.12 0.12 66 1013.1
20260503180910 59 71 3.0 5.0 0.00 0.12 0.12 68 1013.4
20260503180408 58 150 3.0 5.0 0.00 0.12 0.12 68 1013.4
20260503175904 56 146 3.0 6.0 0.00 0.12 0.12 70 1013.4
20260503175403 56 55 4.0 7.0 0.00 0.12 0.12 72 1013.6
20260503174858 56 109 3.0 6.0 0.00 0.12 0.12 72 1013.8
20260503174356 54 222 1.0 3.0 0.00 0.12 0.12 75 1014.0
20260503173851 53 292 2.0 5.0 0.00 0.12 0.12 75 1014.1
20260503173347 53 110 3.0 7.0 0.00 0.12 0.12 76 1014.2
20260503172844 52 75 3.0 6.0 0.00 0.12 0.12 77 1014.4
20260503172342 52 184 3.0 6.0 0.00 0.12 0.12 77 1014.4
20260503171838 51 130 2.0 5.0 0.00 0.12 0.12 79 1014.3
20260503171335 51 139 3.0 5.0 0.00 0.12 0.12 81 1014.2
20260503170832 50 111 3.0 6.0 0.00 0.12 0.12 82 1014.8
20260503170328 50 117 2.0 7.0 0.00 0.12 0.12 83 1014.8
20260503150721 47 40 1.0 1.0 0.07 0.07 0.07 89 1017.3
20260503150217 47 28 0.0 1.0 0.12 0.07 0.07 87 1017.3
20260503140141 52 249 3.0 8.0 0.00 0.00 0.00 65 1017.0
20260503131111 47 231 1.0 5.0 0.00 0.00 0.00 73 1018.0
20260503130609 46 241 2.0 5.0 0.00 0.00 0.00 73 1018.0
20260503130106 46 271 2.0 2.0 0.00 0.00 0.00 75 1018.1
20260503110458 42 208 2.0 3.0 0.00 0.00 0.00 79 1017.2